Simultaneous Nadir Overpasses (SNOs) Predictions

Prediction of SNOs between METOP-A and NOAA-19 Satellite Orbit:

Table of predicted SNOs for the next 14.0 days since TLE Epoch: 1/24/2020
Index Date (METOP-A) Time (METOP-A) Lat,Lon (METOP-A) SZA (METOP-A ) Date (NOAA-19) Time (NOAA-19) Lat,Lon (NOAA-19) SZA (NOAA-19 ) Distance(km) Time Diff (sec)
1 02/02/2020 03:15:21 -80.28, -35.46 82.65 02/02/2020 03:14:21 -80.29, -35.61 82.65 3.14 60
2 02/02/2020 04:06:01 80.28, 131.94 97.35 02/02/2020 04:05:22 80.28, 131.81 97.34 2.65 39
3 02/02/2020 04:56:43 -80.26, -60.92 82.69 02/02/2020 04:56:21 -80.27, -60.88 82.68 1.33 22
4 02/02/2020 05:47:23 80.27, 106.48 97.31 02/02/2020 05:47:22 80.26, 106.53 97.31 1.20 1
5 02/02/2020 06:38:04 -80.28, -86.08 82.69 02/02/2020 06:38:21 -80.26, -86.16 82.71 2.68 17
6 02/02/2020 07:28:45 80.26, 81.01 97.28 02/02/2020 07:29:23 80.27, 80.92 97.29 2.15 38
7 02/02/2020 08:19:26 -80.27,-111.55 82.72 02/02/2020 08:20:21 -80.25,-111.43 82.74 3.39 55




NCC Satellite Simultaneous Nadir Overpasses (SNOs) Prediction Service
